This is the latest recevied weather packets stored in our database for station/object N7CEE. If no packets are shown the sender has not sent any weather packets the latest 1 day(s).
| Time | Temp. | Humidity | Pressure | Rain* | Wind** | Luminosity | Snow |
|---|---|---|---|---|---|---|---|
| 1778070133 | -1.11° C | 90% | 1022.4 hPa | 0 mm | - | 1 W/m² | - |
| 1778069527 | -1.11° C | 90% | 1022.1 hPa | 0 mm | - | 0 W/m² | - |
| 1778068922 | -1.11° C | 92% | 1022.1 hPa | 0 mm | - | 0 W/m² | - |
| 1778068015 | -1.11° C | 95% | 1022.1 hPa | 0 mm | - | 0 W/m² | - |
| 1778066804 | -1.67° C | 96% | 1022 hPa | 0 mm | - | 0 W/m² | - |
| 1778066502 | -1.67° C | 96% | 1022.1 hPa | 0 mm | - | 0 W/m² | - |
| 1778065897 | -1.67° C | 96% | 1022 hPa | 0 mm | - | 0 W/m² | - |
| 1778064988 | -1.67° C | 96% | 1021.9 hPa | 0 mm | - | 0 W/m² | - |
| 1778064685 | -1.67° C | 95% | 1021.9 hPa | 0 mm | - | 0 W/m² | - |
| 1778061659 | -1.67° C | 97% | 1021.3 hPa | 0 mm | - | 0 W/m² | - |
| 1778061358 | -1.67° C | 97% | 1021.5 hPa | 0 mm | - | 0 W/m² | - |
| 1778061054 | -1.67° C | 96% | 1021.4 hPa | 0 mm | - | 0 W/m² | - |
| 1778059239 | -1.11° C | 96% | 1021.1 hPa | 0 mm | - | 0 W/m² | - |
| 1778058937 | -1.67° C | 96% | 1021.4 hPa | 0 mm | - | 0 W/m² | - |
| 1778058634 | -1.67° C | 96% | 1021.3 hPa | 0 mm | - | 0 W/m² | - |
| 1778058028 | -1.11° C | 95% | 1021.5 hPa | 0 mm | - | 0 W/m² | - |
| 1778057725 | -1.11° C | 95% | 1021.1 hPa | 0 mm | - | 0 W/m² | - |
| 1778056512 | -0.56° C | 93% | 1021.1 hPa | 0 mm | - | 0 W/m² | - |
| 1778055906 | -0.56° C | 92% | 1021.6 hPa | 0 mm | - | 0 W/m² | - |
| 1778054997 | 0° C | 90% | 1021.4 hPa | 0 mm | - | 0 W/m² | - |
| 1778053483 | 0° C | 91% | 1021.5 hPa | 0 mm | - | 0 W/m² | - |
| 1778052878 | 0° C | 91% | 1021.9 hPa | 0 mm | - | 0 W/m² | - |
| 1778052575 | 0° C | 92% | 1021.5 hPa | 0 mm | - | 0 W/m² | - |
| 1778052272 | 0° C | 91% | 1021.8 hPa | 0 mm | - | 0 W/m² | - |
| 1778051970 | 0.56° C | 92% | 1021.5 hPa | 0 mm | - | 0 W/m² | - |
* Rain latest hour (hover to see other rain measurements)
** Current wind speed in m/s (hover to see current wind gust speed)